Flag for Denmark Weather past 2 weeks in Esbjerg, Denmark

Now
52 °F

Partly sunny.


Feels Like: 46 °F
Forecast: 48 / 53 °F
Wind: 17 mph from Northwest

Location: Esbjerg Airport

Current Time: May 26, 2015 at 4:41:53 PM

Latest Report: May 26, 2015 at 4:20 PM


Visibility: N/A

Pressure: 30.04 "Hg

Humidity: 67%

Dew point: 41 °F

Location of EsbjergLocation

Historic Weather in Esbjerg — Graph

°F

Esbjerg temperature yesterday

Maximum temperature yesterday: 57 °F (at 1:20 PM)
Minimum temperature yesterday: 45 °F (at 5:50 AM)
Average temperature yesterday: 50 °F

Past Weeks' High & Low Weather Summary

 TemperatureHumidityPressure
High66 °F (May 11, 3:50 PM)100% (May 12, 2:50 AM)30.21 "Hg (May 12, 2:50 AM)
Low34 °F (May 17, 8:20 AM)59% (May 25, 1:20 PM)29.42 "Hg (May 18, 11:20 PM)
Average50 °F81%29.95 "Hg
* Reported May 11 3:20 PM — May 26 3:20 PM, Esbjerg, Weather by CustomWeather, © 2015

Note: Actual official high and low records may vary slightly from our data, if they occured in-between our weather recording intervals... More about our weather records

Advertising

Esbjerg weather history for previous 24 hours

 ConditionsComfort  
Time TempWeatherWind HumidityBarometerVisibility
3:20 PM
Tue, May 26
50 °FDrizzle. Partly sunny.14 mph76%30.01 "HgN/A
2:50 PM52 °FPartly sunny.15 mph72%30.01 "HgN/A
2:20 PM50 °FPartly sunny.17 mph71%30.01 "HgN/A
1:50 PM52 °FPartly sunny.14 mph77%30.01 "HgN/A
1:20 PM50 °FPartly sunny.20 mph71%30.01 "HgN/A
12:50 PM50 °FPartly sunny.17 mph71%29.98 "HgN/A
12:20 PM50 °FSprinkles. Broken clouds.15 mph76%29.98 "HgN/A
11:50 AM52 °FPartly sunny.16 mph72%29.98 "HgN/A
11:20 AM50 °FPartly sunny.15 mph71%29.98 "HgN/A
10:50 AM52 °FPartly sunny.16 mph72%29.98 "HgN/A
10:20 AM50 °FPartly sunny.15 mph71%29.98 "HgN/A
9:50 AM50 °FPartly sunny.15 mph76%29.98 "HgN/A
9:20 AM50 °FPartly sunny.14 mph76%29.98 "HgN/A
8:50 AM50 °FPartly sunny.15 mph76%29.95 "HgN/A
8:20 AM48 °FOvercast.13 mph82%29.95 "HgN/A
7:50 AM48 °FPartly sunny.12 mph87%29.95 "HgN/A
7:20 AM48 °FPartly sunny.9 mph87%29.95 "HgN/A
6:50 AM46 °FScattered clouds.7 mph93%29.92 "HgN/A
6:20 AM45 °FSprinkles. Partly sunny.5 mph93%29.92 "HgN/A
5:50 AM43 °FPassing clouds.6 mph93%29.92 "HgN/A
5:20 AM43 °FPassing clouds.6 mph87%29.92 "HgN/A
4:50 AM43 °FPassing clouds.8 mph93%29.92 "HgN/A
4:20 AM43 °FSprinkles. Passing clouds.7 mph93%29.92 "HgN/A
3:50 AM43 °FPassing clouds.8 mph93%29.92 "HgN/A
3:20 AM45 °FPassing clouds.7 mph87%29.92 "HgN/A
2:50 AM45 °FPassing clouds.7 mph87%29.92 "HgN/A
2:20 AM46 °FPassing clouds.9 mph87%29.92 "HgN/A
1:50 AM46 °FPassing clouds.8 mph87%29.92 "HgN/A
1:20 AM46 °FPassing clouds.8 mph87%29.92 "HgN/A
12:50 AM46 °FPartly cloudy.8 mph87%29.92 "HgN/A
12:20 AM46 °FPassing clouds.8 mph87%29.92 "HgN/A
11:50 PM
Mon, May 25
46 °FSprinkles. Partly cloudy.7 mph87%29.92 "HgN/A
11:20 PM46 °FPassing clouds.5 mph87%29.92 "HgN/A
10:20 PM48 °FBroken clouds.7 mph82%29.95 "HgN/A
9:50 PM48 °FBroken clouds.7 mph82%29.92 "HgN/A
9:20 PM48 °FOvercast.7 mph82%29.92 "HgN/A
8:50 PM48 °FOvercast.8 mph82%29.92 "HgN/A
8:20 PM48 °FBroken clouds.8 mph87%29.92 "HgN/A
7:50 PM50 °FBroken clouds.12 mph76%29.92 "HgN/A
7:20 PM54 °FBroken clouds.10 mph67%29.92 "HgN/A
6:50 PM52 °FPartly sunny.10 mph77%29.92 "HgN/A
6:20 PM50 °FBroken clouds.9 mph88%29.92 "HgN/A
5:50 PM50 °FLight rain. Partly sunny.15 mph76%29.92 "Hg5 mi
5:20 PM52 °FPartly sunny.15 mph77%29.92 "HgN/A
4:50 PM52 °FBroken clouds.14 mph77%29.92 "HgN/A
4:20 PM54 °FBroken clouds.13 mph77%29.92 "HgN/A
Weather by CustomWeather, © 2015

See weather overviewHow to use our weather pages